Theta_e
328 327 326 325 325 324 323 323 323 322 322 321 322 322 322 322 322 322 320 320 319 319
327 327 326 327 326 325 325 324 324 323 322 322 321 321 321 321 321 322 322 321 320 319
327 327 328 327 326 325 326 326 325 324 322 322 321 321 321 321 321 321 321 321 321 320
327 327 327 327 327 326 326 326 325 325 323 322 321 321 320 320 320 320 320 321 320 320
325 326 326 326 327 327 326 326 326 325 324 322 322 321 320 319 320 320 319 320 319 319
322 323 324 326 327 327 326 326 326 325 323 323 322 322 321 321 321 320 320 320 319 318
316 320 322 324 325 325 326 325 324 324 324 323 323 322 321 321 321 321 321 320 318 317
312 316 318 320 321 323 323 324 324 323 323 323 323 321 320 319 320 320 319 316 315 316
308 310 311 314 316 317 319 320 321 321 321 321 320 311 307 315 319 318 315 314 313 313
303 304 307 309 308 308 313 316 316 318 320 320 320 305 304 303 317 317 316 315 311 306
295 298 299 298 300 305 307 310 311 315 318 319 318 302 302 299 317 315 315 313 309 305
294 294 294 295 300 303 303 305 308 311 311 313 312 299 301 301 311 308 307 307 305 304
292 290 292 295 297 300 302 303 303 299 303 301 309 297 298 302 305 295 292 287 291 290
290 290 292 294 295 297 297 295 293 293 293 292 294 294 296 297 296 298 290 291 288 289
Wind_Speed
23 16 17 18 15 14 14 15 17 18 19 20 18 17 15 12 13 15 14 17 15 11
20 22 19 21 18 14 16 14 17 18 19 19 19 18 17 14 16 15 15 15 15 14
20 20 21 18 19 19 18 18 16 17 19 19 19 19 18 15 16 15 13 12 15 14
16 18 18 19 18 19 18 17 18 18 18 19 19 19 18 18 17 19 18 16 16 17
14 15 17 19 19 18 18 18 17 17 19 19 20 19 20 20 18 19 19 18 16 17
14 15 16 18 18 19 18 18 17 17 19 20 20 20 19 20 19 18 18 17 17 17
13 15 16 16 16 17 17 18 18 18 19 19 19 19 18 18 18 18 17 16 15 15
13 11 12 13 14 15 16 18 19 19 18 18 17 14 18 18 19 19 17 14 15 16
9 9 10 11 12 13 14 15 16 18 18 18 14 18 20 19 16 17 15 15 15 14
10 10 12 12 10 12 14 14 15 17 17 19 18 18 21 22 16 16 16 17 14 11
9 11 10 8 11 13 10 14 13 15 16 17 15 19 21 21 19 14 16 16 15 15
11 11 8 9 13 13 10 12 13 14 15 17 14 19 22 19 16 13 14 13 13 14
15 10 10 12 13 11 12 14 9 10 11 13 15 15 18 19 9 7 4 2 5 10
18 15 12 12 9 10 11 8 8 9 7 7 8 9 16 18 8 9 7 7 6 6
Wind_Direction
213 213 215 215 213 213 211 211 209 206 209 213 212 213 211 213 216 213 214 214 213 218
214 216 219 219 217 215 215 217 211 206 207 209 212 211 211 215 217 217 215 217 216 218
220 219 222 224 221 219 220 217 210 206 206 207 210 210 211 215 217 215 217 217 217 219
228 225 225 227 225 222 221 217 215 208 204 205 209 210 211 215 214 215 216 214 215 222
232 229 227 227 226 224 224 220 216 209 207 207 209 208 209 214 214 215 215 215 215 220
232 229 230 230 227 224 223 223 219 212 210 211 210 209 210 212 214 217 217 216 213 217
243 236 230 229 230 226 221 220 221 218 218 216 213 210 208 208 211 214 216 215 213 208
249 244 239 235 228 226 224 222 220 220 221 218 217 211 207 205 207 210 210 204 201 205
244 238 232 229 225 227 224 224 222 221 219 217 215 209 202 202 208 211 206 204 205 204
239 238 236 235 229 221 224 223 222 223 220 221 217 198 196 196 207 208 207 207 202 196
243 244 244 232 233 236 229 223 219 222 222 222 220 191 196 193 209 210 211 204 196 195
273 259 245 241 242 241 230 231 226 224 215 218 216 193 193 187 209 208 208 199 194 191
290 261 257 254 250 245 235 236 223 223 219 213 216 199 196 191 199 194 174 118 167 175
299 281 265 261 247 237 238 237 219 221 214 206 198 188 192 196 185 191 170 178 166 169